| time (UTC) | temp F | wind direction | speed MPH | gust MPH | rain 1hr in | rain 24hr in | rain mn in | humidity % | barometer mb |
| 20260509233055 | 87 | 152 | 0.0 | 3.0 | 0.00 | 0.00 | 0.00 | 69 | 1006.2 |
| 20260509231605 | 87 | 148 | 0.0 | 2.0 | 0.00 | 0.00 | 0.00 | 72 | 1006.3 |
| 20260509230054 | 87 | 144 | 0.0 | 2.0 | 0.00 | 0.00 | 0.00 | 72 | 1006.2 |
| 20260509224547 | 87 | 84 | 0.0 | 5.0 | 0.00 | 0.00 | 0.00 | 73 | 1006.1 |
| 20260509223048 | 87 | 74 | 2.0 | 5.0 | 0.00 | 0.00 | 0.00 | 74 | 1006.1 |
| 20260509221546 | 87 | 110 | 2.0 | 8.0 | 0.00 | 0.00 | 0.00 | 74 | 1006.0 |
| 20260509220045 | 88 | 104 | 1.0 | 4.0 | 0.00 | 0.00 | 0.00 | 74 | 1005.9 |
| 20260509214546 | 88 | 83 | 2.0 | 9.0 | 0.00 | 0.00 | 0.00 | 73 | 1005.9 |
| 20260509213046 | 89 | 86 | 2.0 | 12.0 | 0.00 | 0.00 | 0.00 | 72 | 1005.8 |
| 20260509211550 | 91 | 325 | 2.0 | 5.0 | 0.00 | 0.00 | 0.00 | 66 | 1005.9 |
| 20260509210055 | 91 | 245 | 1.0 | 5.0 | 0.00 | 0.00 | 0.00 | 60 | 1005.9 |
| 20260509204538 | 89 | 211 | 1.0 | 6.0 | 0.00 | 0.00 | 0.00 | 66 | 1006.0 |
| 20260509203042 | 89 | 67 | 1.0 | 3.0 | 0.00 | 0.00 | 0.00 | 67 | 1006.1 |
| 20260509201540 | 87 | 70 | 3.0 | 7.0 | 0.00 | 0.00 | 0.00 | 69 | 1006.3 |
| 20260509200034 | 89 | 46 | 3.0 | 6.0 | 0.00 | 0.00 | 0.00 | 71 | 1006.6 |
| 20260509194533 | 90 | 71 | 0.0 | 0.0 | 0.00 | 0.00 | 0.00 | 68 | 1006.6 |
| 20260509193029 | 89 | 203 | 0.0 | 8.0 | 0.00 | 0.00 | 0.00 | 65 | 1006.7 |
| 20260509191527 | 88 | 15 | 3.0 | 5.0 | 0.00 | 0.00 | 0.00 | 67 | 1006.8 |
| 20260509190031 | 89 | 297 | 4.0 | 9.0 | 0.00 | 0.00 | 0.00 | 66 | 1006.9 |
| 20260509184529 | 88 | 304 | 1.0 | 3.0 | 0.00 | 0.00 | 0.00 | 67 | 1007.0 |
| 20260509183028 | 86 | 281 | 1.0 | 5.0 | 0.00 | 0.00 | 0.00 | 71 | 1007.3 |
| 20260509181518 | 85 | 321 | 2.0 | 7.0 | 0.00 | 0.00 | 0.00 | 74 | 1007.6 |
| 20260509180017 | 85 | 342 | 1.0 | 7.0 | 0.00 | 0.00 | 0.00 | 79 | 1007.9 |
| 20260509174508 | 83 | 258 | 1.0 | 6.0 | 0.00 | 0.00 | 0.00 | 80 | 1008.4 |
| 20260509173011 | 83 | 261 | 1.0 | 10.0 | 0.00 | 0.00 | 0.00 | 80 | 1008.5 |
| 20260509171507 | 82 | 196 | 1.0 | 6.0 | 0.00 | 0.00 | 0.00 | 81 | 1008.5 |
| 20260509170004 | 82 | 160 | 2.0 | 8.0 | 0.00 | 0.00 | 0.00 | 82 | 1008.6 |
| 20260509164503 | 82 | 267 | 0.0 | 1.0 | 0.00 | 0.00 | 0.00 | 83 | 1008.7 |
| 20260509163001 | 82 | 208 | 0.0 | 3.0 | 0.00 | 0.00 | 0.00 | 82 | 1008.5 |
| 20260509161559 | 82 | 261 | 0.0 | 2.0 | 0.00 | 0.00 | 0.00 | 85 | 1008.5 |
| 20260509161500 | 82 | 256 | 0.0 | 4.0 | 0.00 | 0.00 | 0.00 | 85 | 1008.5 |
| 20260509160055 | 81 | 206 | 0.0 | 1.0 | 0.00 | 0.00 | 0.00 | 87 | 1008.5 |
| 20260509154605 | 79 | 118 | 0.0 | 1.0 | 0.00 | 0.00 | 0.00 | 89 | 1008.5 |
| 20260509153049 | 78 | 98 | 0.0 | 0.0 | 0.00 | 0.00 | 0.00 | 89 | 1008.0 |
| 20260509151547 | 78 | 48 | 0.0 | 1.0 | 0.00 | 0.00 | 0.00 | 91 | 1008.5 |
| 20260509150050 | 77 | 85 | 0.0 | 0.0 | 0.00 | 0.00 | 0.00 | 93 | 1008.2 |
| 20260509144545 | 77 | 236 | 0.0 | 1.0 | 0.00 | 0.00 | 0.00 | 94 | 1008.4 |
| 20260509143048 | 76 | 220 | 0.0 | 1.0 | 0.00 | 0.00 | 0.00 | 95 | 1008.7 |
| 20260509141540 | 76 | 216 | 0.0 | 6.0 | 0.00 | 0.00 | 0.00 | 96 | 1008.6 |
| 20260509140038 | 76 | 201 | 2.0 | 5.0 | 0.00 | 0.00 | 0.00 | 96 | 1008.5 |
| 20260509134536 | 76 | 258 | 0.0 | 2.0 | 0.00 | 0.00 | 0.00 | 96 | 1008.1 |
| 20260509133034 | 76 | 206 | 0.0 | 4.0 | 0.00 | 0.00 | 0.00 | 96 | 1008.4 |
| 20260509131531 | 76 | 255 | 1.0 | 4.0 | 0.00 | 0.00 | 0.00 | 96 | 1008.6 |
| 20260509130031 | 75 | 204 | 0.0 | 3.0 | 0.00 | 0.00 | 0.00 | 96 | 1008.2 |
| 20260509124538 | 75 | 72 | 0.0 | 0.0 | 0.00 | 0.00 | 0.00 | 96 | 1008.5 |
| 20260509123026 | 75 | 72 | 0.0 | 0.0 | 0.00 | 0.00 | 0.00 | 96 | 1008.5 |
| 20260509121537 | 75 | 72 | 0.0 | 0.0 | 0.00 | 0.00 | 0.00 | 96 | 1008.3 |
| 20260509120022 | 75 | 72 | 0.0 | 0.0 | 0.00 | 0.00 | 0.00 | 96 | 1008.4 |
| 20260509114542 | 75 | 72 | 0.0 | 0.0 | 0.00 | 0.00 | 0.00 | 96 | 1008.3 |
| 20260509113021 | 75 | 72 | 0.0 | 0.0 | 0.00 | 0.00 | 0.00 | 96 | 1008.3 |
| 20260509111520 | 75 | 72 | 0.0 | 0.0 | 0.00 | 0.00 | 0.00 | 96 | 1008.3 |
| 20260509110021 | 75 | 72 | 0.0 | 0.0 | 0.00 | 0.00 | 0.00 | 96 | 1007.9 |
| 20260509104521 | 75 | 72 | 0.0 | 0.0 | 0.00 | 0.00 | 0.00 | 96 | 1007.8 |
| 20260509103019 | 75 | 72 | 0.0 | 0.0 | 0.00 | 0.00 | 0.00 | 96 | 1007.8 |
| 20260509101518 | 75 | 72 | 0.0 | 0.0 | 0.00 | 0.00 | 0.00 | 96 | 1007.7 |
| 20260509100018 | 75 | 72 | 0.0 | 0.0 | 0.00 | 0.00 | 0.00 | 96 | 1007.7 |
| 20260509094523 | 75 | 72 | 0.0 | 0.0 | 0.00 | 0.00 | 0.00 | 95 | 1007.5 |
| 20260509093017 | 74 | 72 | 0.0 | 0.0 | 0.00 | 0.00 | 0.00 | 96 | 1007.5 |
| 20260509091516 | 74 | 72 | 0.0 | 0.0 | 0.00 | 0.00 | 0.00 | 96 | 1007.2 |
| 20260509090041 | 74 | 72 | 0.0 | 0.0 | 0.00 | 0.00 | 0.00 | 95 | 1007.2 |
| 20260509084522 | 74 | 94 | 0.0 | 0.0 | 0.00 | 0.00 | 0.00 | 95 | 1007.3 |
| 20260509083034 | 74 | 178 | 0.0 | 0.0 | 0.00 | 0.00 | 0.00 | 95 | 1007.4 |
| 20260509081518 | 74 | 178 | 0.0 | 0.0 | 0.00 | 0.00 | 0.00 | 95 | 1007.5 |
| 20260509080012 | 74 | 178 | 0.0 | 1.0 | 0.00 | 0.00 | 0.00 | 95 | 1007.6 |
| 20260509074523 | 74 | 178 | 0.0 | 0.0 | 0.00 | 0.00 | 0.00 | 95 | 1007.9 |
| 20260509073008 | 74 | 178 | 0.0 | 0.0 | 0.00 | 0.00 | 0.00 | 95 | 1008.0 |
| 20260509071508 | 74 | 178 | 0.0 | 0.0 | 0.00 | 0.00 | 0.00 | 94 | 1008.1 |
| 20260509070006 | 74 | 178 | 0.0 | 0.0 | 0.00 | 0.00 | 0.00 | 94 | 1008.0 |
| 20260509064504 | 74 | 178 | 0.0 | 0.0 | 0.00 | 0.00 | 0.00 | 94 | 1007.8 |
| 20260509063003 | 74 | 178 | 0.0 | 1.0 | 0.00 | 0.00 | 0.00 | 94 | 1008.1 |
| 20260509061500 | 75 | 178 | 0.0 | 0.0 | 0.00 | 0.00 | 0.00 | 94 | 1008.2 |
| 20260509060059 | 75 | 178 | 0.0 | 0.0 | 0.00 | 0.00 | 0.00 | 94 | 1008.1 |
| 20260509054559 | 75 | 178 | 0.0 | 0.0 | 0.00 | 0.00 | 0.00 | 94 | 1008.0 |
| 20260509053056 | 75 | 178 | 0.0 | 0.0 | 0.00 | 0.00 | 0.00 | 94 | 1008.4 |
| 20260509051557 | 76 | 178 | 0.0 | 0.0 | 0.00 | 0.00 | 0.00 | 94 | 1008.2 |
| 20260509050100 | 76 | 182 | 0.0 | 1.0 | 0.00 | 0.00 | 0.00 | 94 | 1008.5 |
| 20260509044554 | 76 | 182 | 0.0 | 1.0 | 0.00 | 0.00 | 0.00 | 94 | 1008.6 |
| 20260509043054 | 76 | 98 | 0.0 | 1.0 | 0.00 | 0.00 | 0.00 | 94 | 1008.7 |
| 20260509041552 | 76 | 75 | 0.0 | 0.0 | 0.00 | 0.00 | 0.00 | 94 | 1008.6 |
| 20260509040050 | 76 | 75 | 0.0 | 3.0 | 0.00 | 0.00 | 0.00 | 94 | 1008.4 |
| 20260509034547 | 75 | 99 | 0.0 | 4.0 | 0.00 | 0.00 | 0.00 | 94 | 1008.1 |
| 20260509033058 | 75 | 89 | 1.0 | 6.0 | 0.00 | 0.00 | 0.00 | 94 | 1008.0 |
| 20260509031542 | 75 | 75 | 1.0 | 6.0 | 0.00 | 0.00 | 0.00 | 94 | 1008.1 |
| 20260509030042 | 75 | 79 | 0.0 | 6.0 | 0.00 | 0.00 | 0.00 | 94 | 1007.9 |
| 20260509024542 | 75 | 88 | 1.0 | 5.0 | 0.00 | 0.00 | 0.00 | 93 | 1007.8 |
| 20260509023041 | 75 | 84 | 1.0 | 5.0 | 0.00 | 0.00 | 0.00 | 93 | 1007.5 |
| 20260509021540 | 75 | 104 | 3.0 | 6.0 | 0.00 | 0.00 | 0.00 | 93 | 1007.6 |
| 20260509020038 | 75 | 105 | 0.0 | 7.0 | 0.00 | 0.00 | 0.00 | 93 | 1007.3 |
| 20260509014533 | 75 | 76 | 1.0 | 8.0 | 0.00 | 0.00 | 0.00 | 93 | 1007.1 |
| 20260509013035 | 75 | 94 | 3.0 | 8.0 | 0.00 | 0.00 | 0.00 | 93 | 1007.3 |
| 20260509011525 | 75 | 88 | 3.0 | 10.0 | 0.00 | 0.00 | 0.00 | 93 | 1007.3 |
| 20260509010020 | 75 | 136 | 1.0 | 7.0 | 0.00 | 0.00 | 0.00 | 92 | 1007.1 |
| 20260509004519 | 75 | 89 | 2.0 | 11.0 | 0.00 | 0.00 | 0.00 | 92 | 1007.2 |
| 20260509003018 | 74 | 102 | 3.0 | 9.0 | 0.00 | 0.00 | 0.00 | 92 | 1007.5 |
| 20260509001517 | 74 | 129 | 6.0 | 13.0 | 0.00 | 0.00 | 0.00 | 92 | 1006.7 |
| 20260509000033 | 75 | 101 | 4.0 | 12.0 | 0.00 | 0.00 | 0.00 | 91 | 1007.2 |
| 20260508234515 | 75 | 96 | 3.0 | 8.0 | 0.00 | 0.00 | 0.00 | 91 | 1007.7 |